Location: Newark
(52.3735°N, 16.9806°E)
Time: 09:44:14
(UTC+00:00)

ISS - Pass Details

Date: 28 September 2021
Orbit: 417 x 423 km, 51.6° (Epoch: 17 October)

Event Time Altitude Azimuth Distance (km) Brightness Sun altitude
Rises 19:00:49 0° 282° (WNW) 2,367 1.4 -22.2°
Reaches altitude 10° 19:03:00 10° 274° (W) 1,502 0.0 -22.5°
Enters shadow 19:05:20 32° 239° (WSW) 753 -2.3 -22.8°
